Terug naar catalogus

UWE-2

ActiefWetenschapSSO
NORAD 35934·PAYLOAD·🇩🇪 Germany

Gelanceerd Sep 23, 2009 vanaf Satish Dhawan Space Centre

Loading…

Volgende Passages (komende 24 uur)

TLE

VersSource: Space-Track

Epoch: Sep 14, 2026, 11:13 UTC

1 35934U 09051D   26257.46797781  .00000470  00000-0  10745-3 0  9991
2 35934  98.3921 162.1309 0005589 339.7149  20.3828 14.60269126901889

Volg UWE-2 in realtime met AllMySat

Download on the App Store